This is the latest recevied weather packets stored in our database for station/object DG0LHZ-10. If no packets are shown the sender has not sent any weather packets the latest 10 day(s).
| Time | Temp. | Humidity | Pressure | Rain* | Wind** | Luminosity | Snow |
|---|---|---|---|---|---|---|---|
| 1788081190 | 25.56° C | 48% | 1014.1 hPa | - | - | - | - |
| 1788080290 | 24.44° C | 49% | 1014 hPa | - | - | - | - |
| 1788079390 | 23.89° C | 50% | 1014.1 hPa | - | - | - | - |
| 1788078490 | 23.33° C | 50% | 1014.2 hPa | - | - | - | - |
| 1788077590 | 22.78° C | 51% | 1014.1 hPa | - | - | - | - |
| 1788076690 | 22.22° C | 51% | 1014 hPa | - | - | - | - |
| 1788075790 | 21.67° C | 52% | 1013.9 hPa | - | - | - | - |
| 1788074890 | 21.11° C | 53% | 1013.8 hPa | - | - | - | - |
| 1788073990 | 20.56° C | 53% | 1013.7 hPa | - | - | - | - |
| 1788073089 | 20° C | 54% | 1013.6 hPa | - | - | - | - |
| 1788072189 | 19.44° C | 54% | 1013.8 hPa | - | - | - | - |
| 1788071289 | 19.44° C | 55% | 1013.7 hPa | - | - | - | - |
| 1788070389 | 18.89° C | 55% | 1013.7 hPa | - | - | - | - |
| 1788069489 | 18.89° C | 55% | 1013.7 hPa | - | - | - | - |
| 1788068589 | 18.89° C | 54% | 1013.7 hPa | - | - | - | - |
| 1788067689 | 18.89° C | 53% | 1013.6 hPa | - | - | - | - |
| 1788066789 | 18.89° C | 53% | 1013.7 hPa | - | - | - | - |
| 1788065889 | 18.89° C | 53% | 1013.6 hPa | - | - | - | - |
| 1788064989 | 18.89° C | 52% | 1013.4 hPa | - | - | - | - |
| 1788064089 | 18.89° C | 51% | 1013.6 hPa | - | - | - | - |
| 1788063189 | 19.44° C | 51% | 1013.4 hPa | - | - | - | - |
| 1788062289 | 19.44° C | 50% | 1013.6 hPa | - | - | - | - |
| 1788061389 | 19.44° C | 50% | 1013.6 hPa | - | - | - | - |
| 1788060489 | 20° C | 50% | 1013.5 hPa | - | - | - | - |
| 1788059589 | 20° C | 50% | 1013.6 hPa | - | - | - | - |
* Rain since midnight (hover to see other rain measurements)
** Current wind speed in m/s (hover to see current wind gust speed)